GALAXY 34

导读 | 星芒AI

GALAXY 34 是一颗通信卫星,由加拿大 Telesat 运营,于 2000 年 12 月发射,用于提供跨大西洋的固定卫星服务(FSS)。它位于东经 34 度轨道位置,主要服务于北美和欧洲的广播、企业通信和互联网接入。该卫星搭载 C 波段和 Ku 波段转发器,支持高质量的视频和数据传输。2022 年,Telesat 启动了对该轨道位置的现代化升级,GALAXY 34 卫星逐步退役,由新一代的 Telesat 113 West B 等卫星接替其功能。

基本信息
目录编号:
54027
目录名称:
GALAXY 34
国际标识:
2022-128B
轨道中心:
EARTH
卫星名称:
GALAXY 34
卫星全名:
--
卫星状态:
在轨 (已飞行1162 天)
发射日期:
2022-10-08 UTC
国别 :
美国 (US)
星等 :
--
轨道信息
数据来源 国际轨道数据
星历时间: 2025-12-13T07:08:24+0800
10小时前
查看轨道信息
半长轴: 42165.177km
偏心率: 0.0001502
轨道倾角: 0.022°
近地点辐角 262.772°
升交点赤经 350.411°
平近点角 46.888°
近地点: 35780.708km
远地点: 35793.376km
周期: 1436.120分钟
每日圈数: 1.002702
详细信息
使用方式:
暂无
2D轨道图
3D轨道图
轨道高度分析图
轨道倾角分析图
轨道综合分析图
查看轨道综合分析图